Terug naar catalogus

FENGYUN 1C DEB

ActiefSSO
NORAD 33605·DEBRIS·🇨🇳 China

Gelanceerd May 10, 1999 vanaf Taiyuan Satellite Launch Center

Loading…

Volgende Passages (komende 24 uur)

TLE

VerouderendSource: Space-Track

Epoch: Sep 9, 2026, 18:23 UTC

1 33605U 99025DCN 26252.76618074  .00000403  00000-0  25699-3 0  9999
2 33605  98.7109 247.1755 0056993  30.3531 144.4795 14.08220501636328

Volg FENGYUN 1C DEB in realtime met AllMySat

Download on the App Store